Regional Weather Roundup
Issued by NWS

Home | Current Version | Previous Version | Graphics & Text | Print | Product List | Glossary On
Versions: 1 2 3 4 5 6 7 8 9 10 11 12 13 14 15 16 17 18 19 20 21 22 23 24 25 26 27 28 29 30 31 32 33 34 35 36 37 38 39 40 41 42 43 44 45 46 47 48 49 50
596
ASUS44 KLIX 221005
RWRLA
LOUISIANA WEATHER ROUNDUP
NATIONAL WEATHER SERVICE NEW ORLEANS LA
400 AM CST MON DEC 22 2014

NOTE: "FAIR" INDICATES FEW OR NO CLOUDS BELOW 12,000 FEET WITH NO
      SIGNIFICANT WEATHER AND/OR OBSTRUCTIONS TO VISIBILITY.
      SKY/WX - SKY CONDITION AND SIGNIFICANT WEATHER.
      TMP - AIR TEMPERATURE.    DP   - DEWPOINT TEMPERATURE.
      RH  - RELATIVE HUMIDITY.  PRES - PRESSURE.
      HX  - HEAT INDEX.         WCI  - WIND CHILL INDEX.

*  THESE STATIONS ARE NOT NWS OR FAA STATIONS AND ARE NOT UNDER
   NWS QUALITY CONTROL.

LAZ040-048-061>063-065-066-069-221100-
SOUTHEAST LOUISIANA

CITY           SKY/WX    TMP DP  RH WIND       PRES   REMARKS
N.O. AUDUBON     N/A     60  58  91 MISG        N/A
N.O. INTL ARPT CLOUDY    58  56  93 E5        29.86F FOG
N.O. LAKEFRONT CLOUDY    58  56  93 E8        29.88S FOG
N.O. DOWNTOWN* CLOUDY    57  54  88 E5        29.87F
SLIDELL        CLOUDY    57  56  96 E5        29.88R FOG
BATON ROUGE    FOG       54  53  97 E6        29.87F VSB 1/4
BOOTHVILLE     PTCLDY    62  62 100 S5        29.87S FOG
BELLE CHASSE   CLOUDY    59  58  96 CALM      29.87S FOG
BOGALUSA*      FOG       56  54  91 CALM      29.90S VSB 1/2
GALLIANO*      CLOUDY    56  55  99 MISG      29.85F FOG
NEW ROADS*     FOG       53  52  97 CALM      29.87F VSB 1
GONZALES*      CLOUDY    57  57 100 CALM      29.87F FOG
HAMMOND*       NOT AVBL
HOUMA*         LGT RAIN  57  57  99 CALM      29.86S
PORT FOURCHON* FOG       61  59  94 NE6       29.88F VSB 1

$$

LAZ041-044-053-054-221100-
SOUTHWEST LOUISIANA

CITY           SKY/WX    TMP DP  RH WIND       PRES   REMARKS
LAKE CHARLES   CLOUDY    53  53 100 E6        29.84S FOG
LAFAYETTE      FOG       52  51  97 CALM      29.87F VSB 1
PATTERSON      CLOUDY    55  54  94 CALM      29.87F
SALT POINT       N/A     58  54  86 CALM      29.85F
NEW IBERIA     FOG       53  52  96 CALM      29.87F VSB 1
CHENAULT AIRPK NOT AVBL

$$

LAZ027-028-221100-
CENTRAL LOUISIANA

CITY           SKY/WX    TMP DP  RH WIND       PRES   REMARKS
FORT POLK      CLOUDY    50  49  99 SE8       29.81F FOG
ALEXANDRIA INT CLOUDY    50  50 100 SE6       29.83F FOG
ALEXANDRIA     CLOUDY    49  49 100 SE3       29.84F

$$

LAZ001-002-221100-
NORTHWEST LOUISIANA

CITY           SKY/WX    TMP DP  RH WIND       PRES   REMARKS
SHREVEPORT     CLOUDY    50  48  93 S10       29.77F
BARKSDALE AFB  NOT AVBL
DTN SHREVEPORT CLOUDY    49  46  90 S12       29.77F

$$

LAZ014-016-221100-
NORTHEAST LOUISIANA

CITY           SKY/WX    TMP DP  RH WIND       PRES   REMARKS
MONROE         CLOUDY    48  48 100 SE6       29.84F FOG
TALLULAH       CLOUDY    52  49  89 SE6       29.86F

$$




USA.gov is the U.S. government's official web portal to all federal, state and local government web resources and services.